This is the latest recevied weather packets stored in our database for station/object K0SDS. If no packets are shown the sender has not sent any weather packets the latest 10 day(s).
| Time | Temp. | Humidity | Pressure | Rain* | Wind** | Luminosity | Snow |
|---|---|---|---|---|---|---|---|
| 1777853505 | 24.44° C | 46% | 1006.7 hPa | 0 mm | - | 54 W/m² | - |
| 1777853202 | 25° C | 45% | 1007 hPa | 0 mm | - | 58 W/m² | - |
| 1777852899 | 25° C | 45% | 1007 hPa | 0 mm | - | 62 W/m² | - |
| 1777852598 | 25° C | 43% | 1006.8 hPa | 0 mm | - | 66 W/m² | - |
| 1777852294 | 25.56° C | 44% | 1006.9 hPa | 0 mm | - | 69 W/m² | - |
| 1777851992 | 26.11° C | 42% | 1007.3 hPa | 0 mm | - | 72 W/m² | - |
| 1777851690 | 26.11° C | 46% | 1007 hPa | 0 mm | - | 88 W/m² | - |
| 1777851387 | 26.67° C | 39% | 1007.2 hPa | 0 mm | - | 109 W/m² | - |
| 1777851082 | 26.67° C | 40% | 1007.6 hPa | 0 mm | - | 100 W/m² | - |
| 1777850780 | 26.67° C | 38% | 1007.3 hPa | 0 mm | - | 99 W/m² | - |
| 1777850477 | 26.67° C | 37% | 1007.5 hPa | 0 mm | - | 107 W/m² | - |
| 1777850175 | 26.67° C | 37% | 1007.4 hPa | 0 mm | - | 124 W/m² | - |
| 1777849871 | 27.22° C | 35% | 1007.5 hPa | 0 mm | - | 125 W/m² | - |
| 1777849568 | 27.78° C | 35% | 1007.4 hPa | 0 mm | - | 154 W/m² | - |
| 1777849265 | 27.78° C | 37% | 1007.7 hPa | 0 mm | - | 171 W/m² | - |
| 1777848963 | 27.22° C | 36% | 1007.4 hPa | 0 mm | - | 202 W/m² | - |
| 1777848657 | 27.22° C | 38% | 1007.6 hPa | 0 mm | - | 236 W/m² | - |
| 1777848355 | 27.78° C | 36% | 1007.5 hPa | 0 mm | - | 175 W/m² | - |
| 1777848053 | 27.78° C | 35% | 1007.7 hPa | 0 mm | - | 237 W/m² | - |
| 1777847750 | 28.33° C | 35% | 1007.9 hPa | 0 mm | - | 277 W/m² | - |
| 1777847445 | 28.33° C | 36% | 1007.5 hPa | 0 mm | - | 244 W/m² | - |
| 1777847144 | 27.78° C | 35% | 1007.7 hPa | 0 mm | - | 243 W/m² | - |
| 1777846842 | 28.33° C | 39% | 1007.9 hPa | 0 mm | - | 312 W/m² | - |
| 1777846539 | 28.33° C | 37% | 1007.8 hPa | 0 mm | - | 353 W/m² | - |
| 1777846237 | 28.33° C | 37% | 1007.9 hPa | 0 mm | - | 374 W/m² | - |
* Rain latest hour (hover to see other rain measurements)
** Current wind speed in m/s (hover to see current wind gust speed)